User: anonymous   Login
Location: Unspecified
(0.0000°N, 0.0000°E)
Time: 20:24:23
(UTC+00:00)
Language:

Cosmos 1510 - Orbit

View from above orbital plane
View from above orbital plane
View from above satellite
View from above satellite

Ground track
Ground track

The orbit data is extracted from the following two-line orbital elements,

1 14521U 83115A   18175.50145118 -.00000015  00000-0  19038-4 0  9990
2 14521  73.6177 256.4325 0027695 188.4452 244.2487 12.41157501567640
Epoch (UTC): 24 June 2018 12:02:05
Eccentricity: 0.0027695
inclination: 73.6177°
perigee height: 1480 km
apogee height: 1523 km
right ascension of ascending node: 256.4325°
argument of perigee: 188.4452°
revolutions per day: 12.41157501
mean anomaly at epoch: 244.2487°
orbit number at epoch: 56764

The dashed part of the orbit path shows where the satellite is in the earth's shadow,  

DLR